Regional Weather Roundup
Issued by NWS

Home | Current Version | Previous Version | Text Only | Print | Product List | Glossary Off
Versions: 1 2 3 4 5 6 7 8 9 10 11 12 13 14 15 16 17 18 19 20 21 22 23 24 25 26 27 28

000
ASUS45 KPSR 201610
RWRAZ

ARIZONA HOURLY REGIONAL WEATHER ROUNDUP
NATIONAL WEATHER SERVICE PHOENIX AZ
900 AM MST FRI APR 20 2018

NOTE: FAIR INDICATES FEW OR NO CLOUDS BELOW 12,000 FEET WITH NO
SIGNIFICANT WEATHER AND/OR OBSTRUCTIONS TO VISIBILITY.

AZZ001>003-036-201700-
NORTHWEST ARIZONA

CITY           SKY/WX    TMP DP  RH WIND       PRES   REMARKS
BULLHEAD CITY  SUNNY     64  32  29 CALM      29.99R
KINGMAN        SUNNY     55  32  41 SW16      29.99F
$$

AZZ004>008-015-016-018-201700-
NORTH CENTRAL ARIZONA

CITY           SKY/WX    TMP DP  RH WIND       PRES   REMARKS
WILLIAMS       CLOUDY    36  25  64 SW12G20   29.96R WCI  27
PRESCOTT       MOSUNNY   48  26  42 SW14      30.00S
FLAGSTAFF      MOSUNNY   38  23  55 SW18      29.95F WCI  28
PAYSON         MOSUNNY   46  21  36 W9G16     30.00S
PAGE           RAIN      41  36  82 VRB3      29.89R
$$

AZZ009>014-017-201700-
NORTHEAST ARIZONA

CITY           SKY/WX    TMP DP  RH WIND       PRES   REMARKS
WINSLOW        SUNNY     50  24  36 W17G25    29.95S
SAINT JOHNS    MOSUNNY   48  19  31 W18       29.97R
WINDOW ROCK    PTSUNNY   43  16  33 SW15G25   29.95S
SHOW LOW       MOSUNNY   45  21  39 SW15G22   30.00R
$$

AZZ540-542>544-546-548-201700-
GREATER PHOENIX AREA

CITY           SKY/WX    TMP DP  RH WIND       PRES   REMARKS
PHOENIX        MOSUNNY   63  30  28 W9        30.00S
BUCKEYE        SUNNY     59  32  36 SW5       30.03S
GLENDALE       SUNNY     63  32  31 S8        30.02S
LUKE AFB       SUNNY     62  33  33 SW13      30.00R
DEER VALLEY    SUNNY     58  29  33 S5        30.00S
SCOTTSDALE     SUNNY     60  31  33 S3        30.02S
MESA-FALCON    MOSUNNY   61  30  31 SW9       30.02R
CHANDLER       SUNNY    N/A N/A N/A CALM      30.02R
$$

AZZ539-553-201700-
SOUTHWEST MARICOPA COUNTY AND PINAL COUNTY

CITY           SKY/WX    TMP DP  RH WIND       PRES   REMARKS
CASA GRANDE    SUNNY     61  30  31 W10       30.03R
GILA BEND      FAIR      61  32  33 W10       30.03R
$$

AZZ503-504-507>509-201700-
SOUTHEAST ARIZONA

CITY           SKY/WX    TMP DP  RH WIND       PRES   REMARKS
TUCSON         SUNNY     59  24  26 W7        30.06R
DAVIS-MONTHAN  SUNNY     59  24  26 N6        30.04R
RYAN FIELD     SUNNY     59  27  29 NW5       30.06S
NOGALES        SUNNY     56  22  26 VRB7      30.05S
SIERRA VISTA   SUNNY     56  12  17 NW15      30.06S
DOUGLAS        SUNNY     58  25  28 N9        30.04R
SAFFORD        SUNNY     59  22  24 NW17G23   30.01R
$$

AZZ532-201700-
SOUTHWEST ARIZONA

CITY           SKY/WX    TMP DP  RH WIND       PRES   REMARKS
YUMA           SUNNY     65  37  35 NW9       30.04S
$$

CAZ041-043-047-048-061-525>527-560>570-201700-
SOUTHERN CALIFORNIA

CITY           SKY/WX    TMP DP  RH WIND       PRES   REMARKS
DOWNTOWN L.A.  CLOUDY    58  47  66 VRB5      30.14R
L.A. AIRPORT   PTSUNNY   57  48  72 S3        30.15R
SAN DIEGO      SUNNY     61  42  49 CALM      30.12S
BURBANK        PTSUNNY   54  48  80 S7        30.13
ONTARIO        MOSUNNY   53  43  68 VRB6      30.13S
RIVERSIDE      MOSUNNY   53  43  68 SW5       30.13S
PALM SPRINGS   SUNNY     64  36  35 CALM      30.05S
EL CENTRO NAS  SUNNY     68  29  23 W9        30.05S
IMPERIAL       SUNNY     66  35  31 NW5       30.03S
BLYTHE         SUNNY     63  31  30 SE3       30.01S
NEEDLES        SUNNY     69  32  25 CALM      29.99S
$$

NVZ020-UTZ003-201700-
SOUTHERN NEVADA-UTAH

CITY           SKY/WX    TMP DP  RH WIND       PRES   REMARKS
LAS VEGAS      MOSUNNY   64  34  32 W15G22    29.96F
SALT LAKE CITY CLOUDY    57  36  45 N20       29.88R
$$

NMZ009-TXZ055-201700-
NEW MEXICO-WEST TEXAS

CITY           SKY/WX    TMP DP  RH WIND       PRES   REMARKS
ALBUQUERQUE    PTSUNNY   53  19  26 W15G23    29.93S
EL PASO        MOSUNNY   72  24  16 W21G29    29.89R
$$


........................KEY........................
SKY/WX - SKY CONDITION/WEATHER
TMP    - TEMPERATURE IN FAHRENHEIT
DP     - DEW POINT IN FAHRENHEIT
RH     - RELATIVE HUMIDITY IN PERCENT
WIND   - DIRECTION AND SPEED IN MILES PER HOUR (MPH)
VRB    - VARIABLE WIND DIRECTION
PRES   - MEAN SEA LEVEL PRESSURE IN INCHES OF MERCURY
         F - FALLING PRESSURE   R - RISING PRESSURE
         S - STEADY PRESSURE
VSB    - VISIBILITY IN MILES
HX     - HEAT INDEX IN FAHRENHEIT
WCI    - WIND CHILL INDEX IN FAHRENHEIT
TC     - TEMPERATURE IN CELSIUS WHICH IS ALSO KNOWN AS
         TEMPERATURE IN CENTIGRADE
AFB    - AIR FORCE BASE
         LUKE AFB IS LUKE AIR FORCE BASE
         DAVIS-MONTHAN IS DAVIS-MONTHAN AIR FORCE BASE
NAS    - NAVAL AIR STATION
         EL CENTRO NAS IS EL CENTRO NAVAL AIR STATION
N/A    - NOT AVAILABLE





USA.gov is the U.S. government's official web portal to all federal, state and local government web resources and services.